{"data":{"norad_id":65359,"epoch":"2026-09-20T11:30:03.849408Z","epoch_age_seconds":119267,"freshness":"FRESH","line1":"1 65359U 25190J   26263.47921122  .00023918  00000+0  71663-3 0  9990","line2":"2 65359  53.1592 341.6104 0001592  76.5015 283.6165 15.34406055 59137","mean_motion":15.34406055,"eccentricity":0.0001592,"inclination_deg":53.1592,"raan_deg":341.6104,"arg_perigee_deg":76.5015,"mean_anomaly_deg":283.6165,"bstar":0.00071663,"rev_number":5913,"period_min":93.847387743787,"perigee_km":461.59618462908,"apogee_km":463.77430243142,"semimajor_km":6840.8222435303,"source":"CELESTRAK","updated_at":"2026-09-21T09:00:35.576599Z"}}